ORBCOMM FM06 1 25118U 97084G 26127.09828712 .00001314 00000+0 39354-3 0 9995 2 25118 45.0139 250.5000 0001075 187.1390 342.6521 14.47463365488438 ORBCOMM FM04 1 25159U 98007C 26127.14629550 .00000952 00000+0 37207-3 0 9993 2 25159 107.9622 84.9604 0039722 36.2422 324.1398 14.35659503470703 ORBCOMM FM19 1 25415U 98046C 26127.21689174 .00000953 00000+0 34869-3 0 9999 2 25415 44.9937 78.2928 0001875 71.7112 61.3129 14.39415817450870 ORBCOMM FM20 1 25416U 98046D 26127.16346403 .00000671 00000+0 26625-3 0 9997 2 25416 44.9936 86.0200 0001371 314.2621 45.8114 14.38005045450880 ORBCOMM FM27 1 25481U 98053G 26127.15998404 .00000671 00000+0 26086-3 0 9991 2 25481 45.0038 170.2062 0001938 264.1533 95.9095 14.39062126444323 ORBCOMM FM32 1 25982U 99065C 26127.06674698 .00000671 00000+0 27133-3 0 9991 2 25982 45.0172 7.8690 0005165 214.9999 145.0510 14.37074291381171 ORBCOMM FM109 1 40086U 14040A 26127.14209274 .00000401 00000+0 12112-3 0 9998 2 40086 47.0036 285.5382 0001063 17.8068 342.2855 14.58802336628356 ORBCOMM FM114 1 41179U 15081A 26127.15963198 .00000328 00000+0 10579-3 0 9994 2 41179 47.0039 195.9705 0002082 343.5567 16.5251 14.58813053551760 ORBCOMM FM110 1 41182U 15081D 26127.21685500 .00000511 00000+0 14456-3 0 9995 2 41182 47.0010 195.1524 0003990 250.1806 109.8650 14.58816818551640 ORBCOMM FM118 1 41183U 15081E 26127.18294067 .00000541 00000+0 15081-3 0 9994 2 41183 47.0035 195.6393 0003758 219.2681 140.7932 14.58838626551745 ORBCOMM FM112 1 41184U 15081F 26127.18729059 .00000648 00000+0 17442-3 0 9990 2 41184 46.9978 104.1056 0002045 18.3448 341.7511 14.58563432552969 ORBCOMM FM113 1 41185U 15081G 26125.99919031 .00000410 00000+0 12297-3 0 9999 2 41185 46.9994 110.0884 0001770 340.6586 19.4232 14.58811338552770 ORBCOMM FM108 1 41187U 15081J 26127.05759926 .00000694 00000+0 18334-3 0 9997 2 41187 47.0065 16.6467 0002667 358.0245 2.0629 14.58811934554077 ORBCOMM FM117 1 41188U 15081K 26127.09152708 .00000665 00000+0 17706-3 0 9997 2 41188 47.0030 15.1327 0003040 6.2760 353.8163 14.58810187554124 ORBCOMM FM116 1 41189U 15081L 26126.31890433 .00000293 00000+0 98293-4 0 9994 2 41189 47.0011 108.5738 0002410 254.1929 105.8691 14.58820221552824